Location: Marysville Observatory
(48.1092°N, 122.1645°W)
Time: 04:51:06
(UTC-07:00)

Daily predictions for brighter satellites

Satellite Brightness Start Highest point End
(mag) Time Altitude Azimuth Time Altitude Azimuth Time Altitude Azimuth
CZ-4C R/B 4.5 00:51:08 10° NW 00:54:04 25° NNW 00:54:04 25° NNW
ATLAS 2AS CENTAUR R/B 4.4 01:42:05 30° ENE 01:42:05 30° ENE 01:46:04 10° NE
SL-16 R/B 4.1 02:23:44 29° NE 02:23:44 29° NE 02:28:47 10° N
Cosmos 2344 4.4 02:57:25 40° ESE 02:57:25 40° ESE 03:05:15 10° NE
Cosmos 2333 Rocket 4.2 03:03:14 10° NNW 03:05:04 20° NNW 03:05:04 20° NNW
Lacrosse 5 rocket 4.0 03:21:05 20° NE 03:21:05 20° NE 03:22:29 10° NE
ATLAS 5 CENTAUR R/B 4.4 03:30:33 17° SE 03:30:33 17° SE 03:31:58 10° SE
Cosmos 2237 Rocket 4.0 03:22:48 10° NNW 03:25:03 24° NNW 03:25:03 24° NNW
ATLAS 2AS CENTAUR R/B 3.3 03:29:31 56° NW 03:29:31 56° NW 03:37:28 10° NE
CZ-2D R/B 2.7 03:43:11 10° NNE 03:47:32 52° ENE 03:47:32 52° ENE
Cosmos 2219 3.8 03:50:36 49° N 03:50:36 49° N 03:54:47 10° NNE
SL-16 R/B 3.4 03:44:06 10° NNW 03:49:27 39° NE 03:54:45 10° ESE
Lacrosse 5 3.1 03:54:26 35° ESE 03:54:26 35° ESE 03:58:05 10° ENE
IRS-1D 4.0 03:54:53 10° NNE 03:59:16 60° NNE 03:59:16 60° NNE
Cosmos 1934 Rocket 4.1 03:56:03 10° N 04:01:23 64° NNW 04:01:23 64° NNW
Cosmos 2227 Rocket 2.8 04:03:30 48° SE 04:04:02 50° ESE 04:09:30 10° NE
Cosmos 1821 Rocket 4.5 03:57:53 10° NNW 04:02:35 49° NW 04:02:35 49° NW
SL-16 R/B 3.2 04:08:50 42° NW 04:08:50 42° NW 04:13:02 10° NNW
Resurs 1-4 Rocket 2.3 04:01:38 10° NNE 04:06:22 70° NNE 04:06:22 70° NNE
Cosmos 1605 Rocket 3.9 04:03:16 10° N 04:09:28 85° E 04:10:31 64° SSE
Cosmos 2297 Rocket 3.1 04:11:35 36° SE 04:13:03 43° ESE 04:18:22 10° NE
ERS-2 4.4 04:12:06 10° NNE 04:13:29 22° NNE 04:13:29 22° NNE
USA 215 4.3 04:13:00 10° SSE 04:16:19 30° SSE 04:16:19 30° SSE
Okean O Rocket 3.0 04:16:17 10° NNE 04:20:22 36° E 04:21:34 30° SE
RESURS DK-1 3.5 04:20:47 40° E 04:20:47 40° E 04:24:19 10° NE
CENTAUR R/B 3.4 04:15:57 10° NW 04:23:29 62° NE 04:31:40 10° ESE
GEOS 3 Rocket 4.4 04:18:53 10° NNE 04:23:27 39° NNW 04:23:27 39° NNW
NOSS 3-2 (C) 4.0 04:25:31 10° NW 04:32:44 54° WSW 04:40:30 10° SSE
Cosmos 1777 Rocket 4.0 04:34:34 63° NW 04:34:34 63° NW 04:39:39 10° NNE
CZ-2D R/B 3.9 04:31:43 10° NNE 04:34:54 54° NNE 04:34:54 54° NNE
ARIANE 5 R/B 3.2 04:36:09 10° N 04:40:12 39° NW 04:40:12 39° NW
Meteor 2-8 Rocket 4.3 04:42:49 50° SW 04:44:25 70° WNW 04:50:33 10° N
Cosmos 2082 3.6 04:44:22 53° SSW 04:45:46 88° WNW 04:51:26 10° NNE
ARGOS Delta rocket 4.2 04:41:23 10° N 04:45:49 50° WNW 04:45:49 50° WNW
Okean 1-7 Rocket 3.9 04:48:26 50° NW 04:48:26 50° NW 04:52:06 10° N
Cosmos 2228 4.1 04:45:09 10° N 04:49:24 45° ENE 04:53:35 10° SSE
Cosmos 2100 Rocket 4.1 04:43:12 10° N 04:49:28 77° E 04:55:46 10° SSE
Cosmos 1802 Rocket 4.3 04:46:07 10° N 04:52:17 65° ENE 04:58:21 10° SSE
Cosmos 2061 Rocket 4.2 04:46:17 10° N 04:52:36 74° E 04:58:58 10° SSE
Tiangong 1 3.2 04:56:05 20° SE 04:56:05 20° SE 04:57:24 10° ESE
Cosmos 2084 4.2 04:57:06 33° NNW 04:57:06 33° NNW 05:00:12 10° NNE
Cosmos 1666 2.5 04:53:30 10° N 04:57:24 87° W 04:57:39 78° S
Lacrosse 5 rocket 2.7 04:56:49 29° NW 04:57:42 32° NNW 05:01:43 10° NE
Meteor 1-15 Rocket 4.2 04:53:09 10° N 04:58:46 80° ENE 05:04:23 10° SSE
Cosmos 724 4.3 04:53:20 10° NW 04:59:31 65° WSW 05:05:40 10° SSE
NOSS 3-4 (A) 3.5 04:57:23 41° WSW 04:59:45 73° NW 05:06:24 10° NE
NOSS 3-4 (C) 3.5 04:57:28 41° WSW 04:59:50 74° NW 05:06:31 10° NE
ADEOS II 3.5 04:55:26 10° NNE 05:00:21 38° E 05:05:14 10° SSE
COS B Rocket 4.2 05:03:38 26° NNE 05:03:38 26° NNE 05:05:05 10° N
CZ-2C R/B 3.7 05:04:19 25° S 05:06:51 59° W 05:11:29 10° NNW
MOS 1-B 4.5 05:01:51 10° N 05:07:28 53° WNW 05:09:32 36° WSW
CZ-4B R/B 3.1 05:03:59 10° NNE 05:08:25 82° ESE 05:11:26 21° S
ATLAS 5 CENTAUR R/B 3.6 05:12:19 24° SSW 05:12:19 24° SSW 05:15:30 10° S
Cosmos 2344 4.0 05:07:27 31° WSW 05:11:29 58° NW 05:20:54 10° NE
CZ-4B R/B 3.2 05:06:45 10° NNE 05:12:12 87° ESE 05:17:28 11° SSW
Cosmos 292 Rocket 4.1 05:14:37 10° NW 05:19:12 42° WSW 05:23:45 10° S
Meteor 1-19 Rocket 4.3 05:17:46 28° SW 05:20:37 54° WNW 05:26:07 10° N
Cosmos 2058 Rocket 2.9 05:17:03 10° NNW 05:21:22 64° W 05:25:40 10° S
Cosmos 2016 Rocket 4.0 05:15:43 10° N 05:22:06 89° ENE 05:28:23 10° S
ATLAS 2AS CENTAUR R/B 4.3 05:16:58 15° WNW 05:22:18 29° NNW 05:29:11 10° NE
Aureole 2 Rocket 2.3 05:20:53 10° NNW 05:24:23 54° WSW 05:27:26 10° S
Okean 2 3.3 05:22:22 24° SSW 05:24:46 70° W 05:28:55 10° N
Cosmos 2173 Rocket 3.9 05:21:19 10° NNW 05:27:21 64° W 05:33:23 10° S
Meteor 2-4 Rocket 3.8 05:22:23 14° SSW 05:27:22 65° WNW 05:33:19 10° N
Cosmos 2298 Rocket 4.0 05:23:05 15° SSW 05:27:30 88° WNW 05:32:52 10° NNE
Okean-O 3.2 05:23:17 10° NNE 05:27:42 58° E 05:32:03 10° S
Cosmos 1727 Rocket 4.4 05:24:51 25° SW 05:28:00 42° WNW 05:34:00 10° N
CZ-2D R/B 3.3 05:24:01 10° N 05:28:05 23° WNW 05:28:51 23° WNW
Cosmos 192 4.2 05:27:43 10° NNW 05:32:42 83° WSW 05:37:38 10° SSE
Cosmos 1459 Rocket 4.1 05:26:48 10° NNW 05:33:02 58° W 05:39:11 10° S
SL-16 R/B 2.6 05:28:18 10° NW 05:33:35 40° WSW 05:38:50 10° S
Cosmos 1025 Rocket 3.7 05:33:14 30° W 05:34:13 34° WNW 05:38:10 10° N
USA 116 4.1 05:29:46 10° SSE 05:34:44 84° WSW 05:39:11 10° NNW
USA 129 3.4 05:33:15 10° SE 05:34:50 27° ENE 05:35:41 17° NNE
Meteor 2-9 Rocket 4.5 05:30:53 10° NNW 05:36:14 46° W 05:41:42 10° SSW
Lacrosse 5 2.1 05:33:39 27° W 05:36:15 57° NNW 05:41:16 10° NE
COSMO-SKYMED 1 4.4 05:32:58 10° SE 05:36:54 35° ENE 05:40:52 10° N
Meteor 1-23 Rocket 4.3 05:31:54 11° SSW 05:37:10 59° WNW 05:42:51 10° N
Thor Agena Rocket 3.7 05:34:24 10° S 05:39:35 54° W 05:44:47 10° NNW
Cosmos 2150 Rocket 3.9 05:36:17 11° SSW 05:41:14 78° WNW 05:46:25 10° NNE
IRS-1C Rocket 4.5 05:37:29 10° N 05:42:29 44° WNW 05:46:26 16° SW
Cosmos 2123 Rocket 4.2 05:39:00 10° S 05:45:09 76° E 05:51:21 10° NNE
Resurs 1-4 Rocket 3.6 05:42:47 10° NNW 05:46:11 17° NW 05:47:26 16° WNW
Cosmos 1174 3.2 05:45:07 18° NW 05:47:08 54° WSW 05:50:17 10° SSE
Cosmos 2227 Rocket 3.0 05:45:21 21° W 05:48:18 33° NW 05:53:25 10° NNE
Meteor 2-15 4.4 05:43:44 10° SSW 05:49:47 78° W 05:55:53 10° N
Intercosmos 25 Rocket 4.1 05:47:58 10° N 05:51:24 58° E 05:56:12 10° SSE
Cosmos 1626 Rocket 3.5 05:48:10 10° S 05:52:32 88° E 05:56:55 10° N
Cosmos 1346 Rocket 3.7 05:50:49 21° WSW 05:52:35 30° WNW 05:56:11 10° N
Okean O Rocket 2.6 05:52:55 10° N 05:56:38 27° WNW 05:59:01 17° WSW
Cosmos 2297 Rocket 2.9 05:53:26 17° WSW 05:57:10 37° NW 06:02:25 10° NNE
Cosmos 1864 Rocket 4.5 05:51:21 10° NNW 05:57:42 76° W 06:04:02 10° S
RESURS DK-1 3.6 05:56:44 18° W 05:58:37 25° NW 06:02:06 10° N
Cosmos 2098 Rocket 3.4 05:57:23 10° NNW 06:01:05 42° W 06:05:40 10° SSW
Cosmos 1898 Rocket 3.8 06:00:58 10° SW 06:06:06 48° WNW 06:11:13 10° NNE
ADEOS Rocket 3.5 05:59:47 10° N 06:06:49 55° WNW 06:13:08 10° SW
Meteor 2-15 Rocket 4.4 06:04:14 10° SSW 06:10:14 65° WNW 06:16:18 10° N
Meteor 1-22 Rocket 4.4 06:08:32 10° N 06:14:02 81° ENE 06:19:44 10° SSE
CENTAUR R/B 3.4 06:06:54 10° NW 06:14:10 44° WSW 06:21:52 10° S
BREEZE M DEB (TANK) 3.6 06:11:47 13° W 06:15:06 79° N 06:28:20 10° E
Cosmos 1943 3.3 06:09:47 10° NNW 06:15:27 84° ENE 06:21:06 10° SSE
Cosmos 1937 Rocket 3.7 06:11:31 10° SW 06:16:38 52° WNW 06:21:50 10° NNE
Cosmos 1602 Rocket 3.7 06:12:23 10° SSW 06:16:43 53° WNW 06:21:03 10° N
PSLV R/B 4.2 06:14:06 10° N 06:18:05 36° WNW 06:22:00 10° SW
Cosmos 1766 3.9 06:16:22 10° N 06:20:22 63° ENE 06:24:20 10° SSE
Cosmos 1603 4.0 06:15:51 10° NW 06:21:15 43° WSW 06:26:35 10° S
OPS 6432 4.4 06:19:33 10° SW 06:22:42 52° NW 06:25:45 10° NNE
NOSS 2-2 (D) 3.7 06:19:35 10° SW 06:23:47 87° NW 06:28:53 10° NE
Genesis I 3.3 06:20:17 10° SW 06:24:17 85° SE 06:28:18 10° NE
Meteor 1-31 Rocket 2.8 06:20:51 10° N 06:24:42 59° WNW 06:28:34 10° SSW
SKYMED 2 3.5 06:20:31 10° S 06:24:51 80° WSW 06:29:14 10° NNW
Cosmos 2228 4.3 06:23:28 10° NW 06:26:38 20° W 06:29:48 10° SW
NOAA 6 4.1 06:22:29 10° NNE 06:27:44 85° WNW 06:32:55 10° SSW
Cosmos 2233 Rocket 4.0 06:22:50 10° NNW 06:29:04 69° W 06:35:14 10° S
Tiangong 1 2.6 06:28:11 10° WSW 06:30:41 23° SSW 06:33:11 10° SE
Cosmos 2263 Rocket 3.7 06:26:11 10° S 06:31:22 41° ESE 06:36:34 10° NE
CZ-4B R/B 3.9 06:28:01 10° N 06:31:53 52° WNW 06:35:34 10° SSW
Cosmos 972 Rocket 4.4 06:29:16 10° SSW 06:34:52 63° WNW 06:41:15 10° NNE
